UAL31 EDDM-KEWR

Flight info

Callsign UAL31
Flight time N/A
Altitude 34000
Route GIVMI1N/26R GIVMI Y101 INBED DCT REKDI DCT LOHRE DCT ADKUV DCT DENUT L610 KOPUL Q60 OKSAW DCT TEWXI DCT LIPGO/N0474F360 DCT KLY DCT ENULA DCT PIKIL/M083F360 DCT 57N020W 57N030W 57N040W 56N050W DCT JANJO/N0486F360 N714B YBC/N0480F380 DCT IMORI DCT HANAA FLOSI4
Aircraft B77W/H-SDE1E2E3FGHIJ2J3J4J5M1RWXY/LB1D1

Departure

Time 2026-05-04 10:19
Airport Munich Airport (EDDM)

Arrival

Time N/A
Airport Newark Liberty International Airport (KEWR)
Time Latitude Longitude Altitude Speed Heading
2026-05-04 09:46 48.35789 11.79266 1490 ft 0 kts 263°
2026-05-04 10:00 48.35741 11.79404 1490 ft 0 kts 353°
2026-05-04 10:09 48.35748 11.79403 1479 ft 5 kts 353°
2026-05-04 10:09 48.35811 11.79392 1484 ft 10 kts 353°
2026-05-04 10:09 48.35880 11.79380 1486 ft 10 kts 353°
2026-05-04 10:10 48.35945 11.79344 1487 ft 10 kts 348°
2026-05-04 10:10 48.36009 11.79332 1477 ft 10 kts 353°
2026-05-04 10:10 48.36074 11.79306 1475 ft 10 kts 320°
2026-05-04 10:10 48.36083 11.79200 1483 ft 11 kts 262°
2026-05-04 10:11 48.36074 11.79090 1482 ft 11 kts 262°
2026-05-04 10:11 48.36065 11.78983 1479 ft 12 kts 264°
2026-05-04 10:11 48.36055 11.78829 1487 ft 18 kts 264°
2026-05-04 10:11 48.36039 11.78606 1486 ft 25 kts 263°
2026-05-04 10:12 48.36018 11.78340 1477 ft 27 kts 263°
2026-05-04 10:12 48.35998 11.78091 1487 ft 24 kts 263°
2026-05-04 10:12 48.35978 11.77843 1476 ft 24 kts 263°
2026-05-04 10:12 48.35962 11.77613 1477 ft 19 kts 264°
2026-05-04 10:13 48.35948 11.77417 1476 ft 19 kts 264°
2026-05-04 10:13 48.35932 11.77220 1481 ft 19 kts 263°
2026-05-04 10:13 48.35917 11.77024 1480 ft 19 kts 263°
2026-05-04 10:13 48.35952 11.76845 1479 ft 19 kts 320°
2026-05-04 10:14 48.36059 11.76810 1484 ft 15 kts 353°
2026-05-04 10:14 48.36116 11.76801 1490 ft 0 kts 353°
2026-05-04 10:16 48.36180 11.76793 1487 ft 17 kts 359°
2026-05-04 10:16 48.36256 11.76824 1485 ft 17 kts 32°
2026-05-04 10:16 48.36294 11.76990 1479 ft 19 kts 82°
2026-05-04 10:16 48.36322 11.77356 1483 ft 63 kts 83°
2026-05-04 10:17 48.36399 11.78352 1487 ft 127 kts 82°
2026-05-04 10:17 48.36519 11.79951 1489 ft 178 kts 85°
2026-05-04 10:19 48.43083 11.84812 4501 ft 267 kts 310°
2026-05-04 10:19 48.44276 11.82551 4931 ft 282 kts 309°
2026-05-04 10:19 48.45520 11.80235 5659 ft 282 kts 309°
2026-05-04 10:19 48.46756 11.77979 6449 ft 276 kts 308°
2026-05-04 10:20 48.47993 11.75747 6971 ft 279 kts 309°
2026-05-04 10:20 48.49237 11.73523 7222 ft 275 kts 309°
2026-05-04 10:20 48.50472 11.71337 7907 ft 276 kts 309°
2026-05-04 10:20 48.51707 11.69150 8490 ft 281 kts 308°
2026-05-04 10:21 48.52982 11.66899 9159 ft 283 kts 308°
2026-05-04 10:21 48.54262 11.64641 9851 ft 285 kts 308°
2026-05-04 10:21 48.55555 11.62352 10491 ft 287 kts 307°
2026-05-04 10:21 48.56538 11.60610 10959 ft 288 kts 308°
2026-05-04 10:22 48.59163 11.55963 12264 ft 292 kts 307°
2026-05-04 10:22 48.60481 11.53624 12890 ft 295 kts 307°
2026-05-04 10:22 48.61817 11.51250 13499 ft 298 kts 307°
2026-05-04 10:23 48.63165 11.48854 14113 ft 300 kts 307°
2026-05-04 10:23 48.64519 11.46450 14698 ft 302 kts 307°
2026-05-04 10:25 48.77082 11.29359 16493 ft 406 kts 325°
2026-05-04 10:25 48.79476 11.27015 17044 ft 412 kts 324°
2026-05-04 10:25 48.80997 11.25484 17474 ft 414 kts 323°
2026-05-04 10:26 48.81563 11.24910 17645 ft 414 kts 323°
2026-05-04 10:26 48.84024 11.22613 18347 ft 418 kts 329°
2026-05-04 10:26 48.86672 11.20714 18955 ft 424 kts 336°
2026-05-04 10:26 48.89470 11.19242 19526 ft 428 kts 339°
2026-05-04 10:27 48.92286 11.17860 20065 ft 432 kts 340°
2026-05-04 10:27 48.94125 11.16954 20426 ft 435 kts 340°
2026-05-04 10:27 48.97013 11.15519 20992 ft 438 kts 339°
2026-05-04 10:28 48.99920 11.14056 21595 ft 441 kts 339°
2026-05-04 10:28 49.02824 11.12581 22203 ft 444 kts 339°
2026-05-04 10:28 49.05740 11.11092 22767 ft 447 kts 339°
2026-05-04 10:28 49.08743 11.09555 23308 ft 451 kts 339°
2026-05-04 10:29 49.11696 11.08043 23732 ft 457 kts 339°
2026-05-04 10:29 49.14731 11.06521 24105 ft 462 kts 339°
2026-05-04 10:29 49.17804 11.04994 24603 ft 464 kts 339°
2026-05-04 10:29 49.20915 11.03433 25146 ft 465 kts 339°
2026-05-04 10:30 49.23950 11.01876 25631 ft 467 kts 338°
2026-05-04 10:30 49.27039 11.00276 26056 ft 471 kts 338°
2026-05-04 10:30 49.28902 10.99311 26321 ft 472 kts 338°
2026-05-04 10:31 49.30038 10.98724 26482 ft 473 kts 338°
2026-05-04 10:31 49.33170 10.97107 26917 ft 476 kts 338°
2026-05-04 10:32 49.47670 10.77458 29389 ft 473 kts 304°
2026-05-04 10:33 49.49715 10.73495 29870 ft 473 kts 304°
2026-05-04 10:33 49.51768 10.69548 30356 ft 471 kts 305°
2026-05-04 10:33 49.53816 10.65629 30837 ft 469 kts 305°
2026-05-04 10:33 49.55859 10.61725 31313 ft 467 kts 305°
2026-05-04 10:34 49.57889 10.57841 31757 ft 465 kts 304°
2026-05-04 10:34 49.59911 10.53962 32182 ft 464 kts 304°
2026-05-04 10:34 49.61929 10.50084 32591 ft 463 kts 304°
2026-05-04 10:34 49.63918 10.46255 32994 ft 462 kts 304°
2026-05-04 10:35 49.65897 10.42363 33388 ft 459 kts 302°
2026-05-04 10:35 49.67717 10.38342 33797 ft 457 kts 300°
2026-05-04 10:35 49.68704 10.36106 33950 ft 457 kts 300°
2026-05-04 10:36 49.71343 10.30070 34015 ft 462 kts 299°
2026-05-04 10:36 49.74930 10.21864 34023 ft 457 kts 300°
2026-05-04 10:37 49.78483 10.13758 34016 ft 455 kts 300°
2026-05-04 10:37 49.82008 10.05706 34016 ft 454 kts 300°
2026-05-04 10:39 49.94412 9.77175 34019 ft 458 kts 299°
2026-05-04 10:40 49.97965 9.68945 34028 ft 459 kts 299°
2026-05-04 10:40 50.00675 9.62650 34024 ft 459 kts 299°
2026-05-04 10:41 50.01371 9.61034 34026 ft 459 kts 299°
2026-05-04 10:41 50.04879 9.52741 34022 ft 457 kts 295°
2026-05-04 10:42 50.07525 9.43864 34025 ft 450 kts 285°
2026-05-04 10:42 50.09244 9.34570 34006 ft 446 kts 281°
2026-05-04 10:43 50.10847 9.25243 34016 ft 445 kts 281°
2026-05-04 10:45 50.17297 8.87996 34017 ft 445 kts 281°
2026-05-04 10:45 50.18487 8.81070 34014 ft 445 kts 281°
2026-05-04 10:46 50.18839 8.79014 34013 ft 445 kts 281°
2026-05-04 10:46 50.20434 8.69672 34028 ft 446 kts 281°